Hourly Data Report for May 28, 2019

KUGAARUK CLIMATE
NUNAVUT
Current Station Operator: ECCC - MSC

68°32'15.060" N
89°47'47.020" W
15.80 m
2303094
71407
NBB

Download Data

Hourly Data (May 2019)
Hourly Data Report for May 28, 2019
TIME
LST
Temp Definition
°C
Dew Point Definition
°C
Rel Hum Definition
%
Precip. Amount Definition
mm

Wind Dir Definition
10's deg

Wind Spd Definition
km/h
Visibility Definition
km
Stn Press Definition
kPa
Hmdx Definition


Wind Chill Definition


Weather Definition


00:00 -2.6 -3.9 91 0.0 6 7   100.88   -5 LegendNANA
01:00 -3.0 -4.1 92 0.0 9 7   100.84   -6 LegendNANA
02:00 -3.0 -4.3 91 0.0 7 11   100.80   -7 LegendNANA
03:00 -3.4 -4.7 90 0.0 8 11   100.78   -8 LegendNANA
04:00 -2.8 -4.4 89 0.0 6 7   100.76   -6 LegendNANA
05:00 -3.3 -5.2 86 0.0 7 7   100.74   -6 LegendNANA
06:00 -1.8 -4.2 83 0.0 6 9   100.71   -5 LegendNANA
07:00 -1.1 -3.7 82 0.0 4 20   100.66   -7 LegendNANA
08:00 -1.4 -3.9 83 0.0 2 18   100.63   -7 LegendNANA
09:00 -1.4 -3.2 87 0.0 2 20   100.57   -7 LegendNANA
10:00 -1.1 -2.7 89 0.0 1 26   100.56   -7 LegendNANA
11:00 -0.5 -2.3 88 0.0 2 25   100.57   -7 LegendNANA
12:00 -0.3 -2.1 87 0.0 2 23   100.57   -6 LegendNANA
13:00 0.1 -1.4 90 0.0 2 21   100.57     LegendNANA
14:00 0.6 -0.8 90 0.0 2 16   100.62     LegendNANA
15:00 0.7 -0.4 93 0.0 2 12   100.64     LegendNANA
16:00 0.7 0.0 96 0.0 2 12   100.68     LegendNANA
17:00 0.8 0.4 97 0.0 3 11   100.72     LegendNANA
18:00 0.9 0.1 95 0.0 6 5   100.80     LegendNANA
19:00 1.0 0.0 93 0.0 6 8   100.85     LegendNANA
20:00 1.0 0.0 93 0.0 11 11   100.91     LegendNANA
21:00 0.9 0.0 94 0.0 12 11   100.98     LegendNANA
22:00 0.7 -0.1 94 0.0 6 10   101.02     LegendNANA
23:00 0.7 -0.1 94 0.0 8 12   101.05     LegendNANA

Notes on Data Quality.

Legend

  • E = Estimated
  • M = Missing
  • NA = Not Available*
  • [empty] = Indicates an unobserved value
Date modified: